Date,TemperatureHighF,TemperatureAvgF,TemperatureLowF,DewpointHighF,DewpointAvgF,DewpointLowF,HumidityHigh,HumidityAvg,HumidityLow,PressureMaxIn,PressureMinIn,WindSpeedMaxMPH,WindSpeedAvgMPH,GustSpeedMaxMPH,PrecipitationSumIn
2013-1-1,38,36,34,36,34,32,95,93,89,30.15,30.04,4,0,0,0.00
2013-1-2,37,32,25,32,25,21,93,78,53,30.26,30.12,4,1,0,0.00
2013-1-3,41,29,22,27,23,20,93,78,48,30.37,30.22,7,1,0,0.00
2013-1-4,40,30,23,28,24,20,90,78,58,30.41,30.34,11,2,0,0.00
2013-1-5,45,33,21,31,26,19,94,74,51,30.40,30.20,6,1,0,0.00
2013-1-6,45,40,32,34,30,24,73,67,60,30.34,30.05,12,5,0,0.00
2013-1-7,45,32,22,27,24,19,92,73,47,30.45,30.25,4,1,0,0.00
2013-1-8,56,38,24,34,29,22,92,74,43,30.37,30.24,7,1,0,0.00
2013-1-9,55,46,37,51,43,33,95,89,81,30.47,30.24,3,0,0,0.00
2013-1-10,53,45,37,49,42,35,96,90,84,30.47,30.07,6,1,0,0.00
2013-1-11,67,58,52,60,54,48,94,87,75,30.07,29.92,10,3,0,0.00
2013-1-12,68,64,59,64,61,57,95,89,78,30.02,29.84,6,1,0,0.00
2013-1-13,68,60,40,59,56,38,95,85,68,30.08,29.80,13,4,0,0.00
2013-1-14,40,35,31,38,31,27,92,86,79,30.37,30.09,9,3,0,0.00
2013-1-15,36,33,31,33,30,27,94,88,81,30.30,29.97,5,2,0,0.00
2013-1-16,37,35,34,35,33,32,95,94,92,30.09,29.94,7,1,0,0.00
2013-1-17,37,34,29,34,31,26,93,88,80,30.35,30.06,9,1,0,0.00
2013-1-18,44,32,22,29,26,20,92,78,51,30.53,30.33,5,1,0,0.00
2013-1-19,56,46,33,30,27,23,70,49,28,30.33,30.02,11,4,0,0.00
2013-1-20,49,41,26,33,24,14,74,52,29,30.17,30.01,11,5,0,0.00
2013-1-21,34,27,21,21,14,4,87,60,33,30.24,30.09,14,6,0,0.00
2013-1-22,24,18,13,8,2,-1,65,50,34,30.41,30.24,10,4,0,0.00
2013-1-23,37,24,12,20,12,4,82,61,41,30.39,30.08,7,1,0,0.00
2013-1-24,29,25,20,20,8,-1,75,50,31,30.53,30.11,10,4,0,0.00
2013-1-25,33,27,23,31,20,5,93,76,46,30.41,30.05,7,3,0,0.00
2013-1-26,36,27,19,28,24,17,96,86,70,30.42,30.19,5,0,0,0.00
2013-1-27,45,32,17,42,27,14,93,82,65,30.42,30.22,4,1,0,0.00
2013-1-28,61,54,43,52,47,39,93,76,62,30.22,30.07,10,5,0,0.00
2013-1-29,71,64,57,59,54,50,78,72,59,30.09,29.65,10,5,0,0.00
2013-1-30,70,58,37,60,52,31,94,81,68,29.67,29.32,19,6,0,0.00
2013-1-31,37,34,28,32,26,22,91,73,60,29.98,29.57,18,8,0,0.00
2013-2-1,34,16,12,32,8,3,91,68,56,30.46,29.92,15,5,0,0.00
2013-2-2,35,27,15,32,23,11,92,84,77,30.38,30.02,7,2,0,0.00
2013-2-3,33,31,28,29,27,23,87,82,76,30.15,29.94,12,4,0,0.00
2013-2-4,51,36,19,41,26,17,97,73,42,30.13,29.84,9,3,0,0.00
2013-2-5,53,46,43,41,39,34,90,76,55,29.98,29.84,11,4,0,0.00
2013-2-6,50,38,27,36,31,25,94,78,55,30.22,29.99,9,1,0,0.00
2013-2-7,65,49,33,41,34,30,90,60,31,30.16,29.85,7,1,0,0.00
2013-2-8,53,42,36,46,36,30,92,80,64,30.28,29.78,11,5,0,0.00
2013-2-9,48,37,29,31,25,20,85,63,33,30.39,30.18,4,1,0,0.00
2013-2-10,60,45,33,46,31,21,84,59,26,30.19,29.83,9,2,0,0.00
2013-2-11,58,53,38,53,38,26,83,60,33,30.07,29.82,14,8,0,0.00
2013-2-12,51,40,29,31,28,25,86,64,39,30.14,29.86,6,1,0,0.00
2013-2-13,41,37,30,35,32,28,93,83,70,29.94,29.69,8,1,0,0.00
2013-2-14,56,41,27,38,32,25,94,75,42,29.98,29.88,10,3,0,0.00
2013-2-15,42,37,32,37,32,27,91,84,74,30.12,29.95,8,1,0,0.00
2013-2-16,34,29,22,26,19,10,91,68,40,30.13,30.01,12,4,0,0.00
2013-2-17,37,27,20,18,15,9,85,62,33,30.26,30.11,9,3,0,0.00
2013-2-18,60,43,22,37,25,16,77,51,33,30.23,29.80,9,4,0,0.00
2013-2-19,54,41,29,39,29,17,91,64,40,30.12,29.75,17,10,0,0.00
2013-2-20,35,28,23,20,17,14,73,61,48,30.27,30.12,9,4,0,0.00
2013-2-21,43,30,16,30,18,13,89,63,35,30.32,30.04,7,2,0,0.00
2013-2-22,61,47,33,49,41,29,95,79,55,30.06,29.88,11,3,0,0.00
2013-2-23,50,43,34,42,35,28,87,75,50,29.96,29.85,6,2,0,0.00
2013-2-24,48,35,25,29,25,22,92,70,41,30.11,29.92,7,2,0,0.00
2013-2-25,54,38,23,28,24,20,91,61,31,30.11,29.82,7,2,0,0.00
2013-2-26,60,49,41,52,40,24,88,71,48,29.82,29.33,10,5,0,0.00
2013-2-27,44,40,35,38,35,31,90,83,74,29.78,29.55,12,7,0,0.00
2013-2-28,36,35,33,33,31,28,93,86,80,29.96,29.75,12,7,0,0.00
2013-3-1,38,36,33,35,34,31,94,92,88,29.98,29.91,7,3,0,0.00
2013-3-2,33,30,28,31,27,24,94,86,74,30.08,29.96,7,3,0,0.00
2013-3-3,34,29,22,27,23,19,90,78,54,30.09,30.04,9,3,0,0.00
2013-3-4,47,33,17,29,22,14,93,68,40,30.17,29.97,5,1,0,0.00
2013-3-5,49,41,33,47,36,28,94,83,57,29.97,29.52,18,3,0,0.00
2013-3-6,33,32,30,30,28,27,91,88,84,30.26,29.75,12,8,0,0.00
2013-3-7,35,33,32,31,29,28,90,85,79,30.37,30.24,4,1,0,0.00
2013-3-8,48,36,25,32,28,23,94,76,47,30.44,30.32,6,1,0,0.00
2013-3-9,68,46,25,38,30,23,93,59,21,30.35,30.05,6,1,0,0.00
2013-3-10,73,63,53,38,32,29,53,32,21,30.06,29.82,6,3,0,0.00
2013-3-11,66,57,42,54,43,32,90,64,29,29.85,29.60,12,6,0,0.00
2013-3-12,48,41,37,36,33,30,83,72,56,30.05,29.85,9,5,0,0.00
2013-3-13,39,34,31,32,24,17,87,66,47,30.33,30.03,14,7,0,0.00
2013-3-14,46,34,20,27,20,16,89,61,33,30.38,30.21,7,3,0,0.00
2013-3-15,63,46,29,44,34,25,88,65,44,30.22,29.80,9,2,0,0.00
2013-3-16,72,63,49,51,47,41,77,57,45,29.91,29.65,16,8,0,0.00
2013-3-17,49,41,38,42,38,35,93,88,76,30.03,29.89,5,3,0,0.00
2013-3-18,58,48,39,54,45,37,96,90,82,29.92,29.64,12,4,0,0.00
2013-3-19,50,42,34,41,26,6,86,56,17,30.11,29.83,15,7,0,0.00
2013-3-20,49,36,25,27,20,11,85,54,30,30.12,29.89,16,7,0,0.00
2013-3-21,33,26,21,18,14,11,76,61,45,30.05,29.94,9,4,0,0.00
2013-3-22,47,31,14,24,16,11,91,59,27,30.11,29.98,5,1,0,0.00
2013-3-23,56,44,36,32,27,21,73,53,34,30.03,29.79,5,1,0,0.00
2013-3-24,48,42,38,42,34,23,97,79,37,29.79,29.32,10,2,0,0.00
2013-3-25,42,35,32,38,31,29,92,86,77,29.96,29.44,15,10,0,0.00
2013-3-26,39,35,33,33,31,29,93,84,70,30.24,29.96,11,6,0,0.00
2013-3-27,44,37,29,30,27,24,86,68,48,30.32,30.24,8,3,0,0.00
2013-3-28,50,38,25,31,26,22,93,66,40,30.35,30.27,7,2,0,0.00
2013-3-29,55,40,26,40,30,23,93,71,33,30.32,30.20,10,2,0,0.00
2013-3-30,63,46,30,42,35,28,95,69,32,30.22,29.93,6,1,0,0.00
2013-3-31,58,52,46,51,46,-100,94,82,66,29.93,29.76,10,4,0,0.00
2013-4-1,51,48,36,47,37,26,92,68,43,30.08,29.81,10,4,0,0.00
2013-4-2,49,38,25,28,21,14,86,56,25,30.24,30.08,8,2,0,0.00
2013-4-3,52,39,23,26,19,13,87,50,21,30.36,30.22,7,2,0,0.00
2013-4-4,54,45,36,39,24,14,77,44,32,30.27,29.97,5,1,0,0.00
2013-4-5,65,49,31,42,33,28,95,61,28,30.06,29.95,9,2,0,0.00
2013-4-6,72,55,33,35,31,28,85,46,22,30.15,29.93,7,2,0,0.00
2013-4-7,75,67,60,46,42,34,54,40,31,29.97,29.91,12,6,0,0.00
2013-4-8,76,65,51,54,48,42,75,56,38,29.96,29.88,15,3,0,0.00
2013-4-9,82,71,57,58,55,51,82,58,38,30.04,29.91,10,3,0,0.00
2013-4-10,85,73,60,61,56,53,83,58,36,29.97,29.75,13,4,0,0.00
2013-4-11,82,72,58,60,56,54,94,61,40,29.76,29.46,20,4,0,0.00
2013-4-12,61,53,45,58,43,32,93,70,47,29.91,29.45,13,7,0,0.00
2013-4-13,63,49,35,40,36,33,93,65,35,30.04,29.91,10,4,0,0.00
2013-4-14,76,58,37,49,40,34,93,57,22,30.02,29.82,9,2,0,0.00
2013-4-15,76,64,56,55,53,50,84,68,46,29.96,29.88,6,2,0,0.00
2013-4-16,84,73,59,66,59,53,81,62,46,30.11,29.93,12,4,0,0.00
2013-4-17,65,62,61,60,59,59,94,92,81,30.14,30.06,12,2,0,0.00
2013-4-19,75,50,44,62,42,34,91,74,55,30.10,29.56,13,9,0,0.00
2013-4-20,56,46,34,35,32,28,89,61,35,30.40,30.09,9,4,0,0.00
2013-4-21,63,49,32,37,31,28,90,54,26,30.51,30.35,7,2,0,0.00
2013-4-22,73,55,36,44,38,33,90,57,26,30.37,30.17,6,1,0,0.00
2013-4-23,72,61,43,54,46,40,90,61,44,30.19,29.97,7,2,0,0.00
2013-4-24,67,58,45,57,47,40,89,71,49,30.28,29.84,17,6,0,0.00
2013-4-25,60,49,40,41,37,31,91,66,38,30.40,30.28,10,2,0,0.00
2013-4-26,64,50,35,46,37,33,95,65,32,30.50,30.37,6,1,0,0.00
2013-4-27,59,54,50,54,49,44,92,81,69,30.39,30.12,5,1,0,0.00
2013-4-28,69,61,55,58,54,-100,94,81,67,30.11,29.89,8,4,0,0.00
2013-4-29,67,59,52,55,54,50,95,83,61,30.05,29.96,5,1,0,0.00
2013-4-30,80,63,46,60,52,44,96,72,36,30.09,30.01,6,1,0,0.00
2013-5-1,82,67,52,62,55,50,95,69,41,30.21,30.08,6,1,0,0.00
2013-5-2,77,66,53,59,54,50,90,68,43,30.23,30.11,4,1,0,0.00
2013-5-3,77,67,55,58,52,36,90,61,31,30.12,29.96,7,2,0,0.00
2013-5-4,75,63,55,55,46,38,93,56,33,30.02,29.90,8,3,0,0.00
2013-5-5,55,52,49,54,50,47,97,92,90,30.00,29.89,6,2,0,0.00
2013-5-6,67,57,51,58,53,48,95,88,67,29.94,29.83,8,3,0,0.00
2013-5-7,54,53,52,52,51,50,95,94,94,29.93,29.92,0,0,0,0.00
2013-5-9,80,68,51,65,58,50,96,73,44,30.10,30.00,7,2,0,0.00
2013-5-10,72,63,58,63,58,-100,94,86,69,30.03,29.89,9,2,0,0.00
2013-5-11,63,59,51,61,56,48,94,89,75,30.01,29.88,8,3,0,0.00
2013-5-12,60,51,40,51,38,-100,94,66,36,30.19,30.00,10,4,0,0.00
2013-5-13,63,50,34,43,36,31,95,63,32,30.26,30.17,11,3,0,0.00
2013-5-14,81,60,39,58,48,37,94,66,41,30.22,29.93,9,3,0,0.00
2013-5-15,85,75,64,62,57,51,77,56,33,30.03,29.91,11,6,0,0.00
2013-5-16,75,63,59,64,37,-100,93,73,48,30.02,29.93,9,2,0,0.00
2013-5-17,80,68,57,67,57,-100,97,81,57,30.09,30.01,2,0,0,0.00
2013-5-18,76,68,64,70,65,62,96,90,78,30.06,29.98,4,0,0,0.00
2013-5-19,83,72,63,72,67,62,96,85,62,30.03,29.94,5,1,0,0.00
2013-5-20,85,74,63,73,66,61,95,79,57,30.07,29.95,6,1,0,0.00
2013-5-21,87,73,63,71,65,60,96,79,48,30.00,29.88,19,2,0,0.00
2013-5-22,81,70,62,68,63,59,94,80,56,29.93,29.81,11,2,0,0.00
2013-5-23,75,66,59,65,61,56,96,82,61,30.03,29.86,12,4,0,0.00
2013-5-24,66,57,47,57,46,42,92,69,44,30.34,30.03,7,4,0,0.00
2013-5-25,67,55,40,54,46,38,95,74,46,30.41,30.24,3,1,0,0.00
2013-5-26,73,62,53,56,52,49,94,72,45,30.32,30.20,3,0,0,0.00
2013-5-27,85,70,53,62,56,51,93,65,36,30.23,30.04,8,2,0,0.00
2013-5-28,87,78,70,66,60,58,68,55,41,30.11,30.00,10,3,0,0.00
2013-5-29,86,77,65,69,64,58,90,65,51,30.16,30.04,6,2,0,0.00
2013-5-30,88,75,61,69,64,59,96,72,44,30.20,30.05,5,1,0,0.00
2013-5-31,87,75,65,70,64,60,87,70,46,30.12,29.99,8,2,0,0.00
2013-6-1,85,78,68,74,67,62,87,70,58,30.03,29.83,10,4,0,0.00
2013-6-2,78,71,66,68,65,-100,93,84,65,29.96,29.87,6,2,0,0.00
2013-6-3,76,67,58,64,60,55,95,80,54,30.06,29.92,6,1,0,0.00
2013-6-4,79,65,50,63,57,48,96,77,52,30.13,30.06,5,1,0,0.00
2013-6-5,85,68,56,68,62,54,95,81,50,30.07,29.90,5,1,0,0.00
2013-6-6,81,72,62,69,65,60,95,80,62,29.91,29.77,9,2,0,0.00
2013-6-7,75,68,63,65,64,59,95,86,64,29.88,29.77,4,1,0,0.00
2013-6-8,82,69,58,68,62,56,96,78,47,30.07,29.88,3,0,0,0.00
2013-6-9,80,68,59,70,64,57,95,89,66,30.10,29.97,8,1,0,0.00
2013-6-10,79,70,65,69,66,62,95,87,59,29.97,29.84,11,2,0,0.00
2013-6-11,84,72,61,70,65,59,96,80,54,30.04,29.92,6,2,0,0.00
2013-6-12,92,80,66,77,70,64,96,74,50,29.99,29.83,8,3,0,0.00
2013-6-13,83,76,62,75,68,59,92,76,61,29.93,29.68,10,6,0,0.00
2013-6-14,81,68,55,65,59,53,96,76,48,30.08,29.92,6,1,0,0.00
2013-6-15,85,71,56,66,60,54,95,72,43,30.14,30.01,4,1,0,0.00
2013-6-16,84,72,63,72,66,61,96,82,59,30.07,29.98,7,2,0,0.00
2013-6-17,87,74,64,75,68,63,96,83,55,30.02,29.89,6,1,0,0.00
2013-6-18,81,70,64,69,65,62,95,86,63,30.02,29.86,6,0,0,0.00
2013-6-19,82,70,60,69,63,59,96,82,52,30.12,29.95,3,1,0,0.00
2013-6-20,85,69,57,68,61,55,96,80,38,30.22,30.11,3,0,0,0.00
2013-6-22,88,83,73,73,70,65,85,67,49,30.22,30.07,3,1,0,0.00
2013-6-23,88,75,63,72,66,61,96,76,43,30.20,30.08,5,1,0,0.00
2013-6-24,86,74,65,73,69,63,96,84,56,30.18,30.08,6,1,0,0.00
2013-6-25,90,78,66,75,71,65,96,81,56,30.14,29.96,6,2,0,0.00
2013-6-26,88,77,68,75,71,66,94,81,59,30.01,29.80,7,2,0,0.00
2013-6-27,84,74,67,77,70,65,96,89,72,29.85,29.77,8,2,0,0.00
2013-6-28,85,78,71,71,67,61,94,71,47,29.78,29.62,11,4,0,0.00
2013-6-29,82,73,61,71,64,59,97,76,56,29.71,29.62,0,0,0,0.00
2013-6-30,81,70,62,69,65,61,96,86,58,29.82,29.67,0,0,0,0.00
2013-7-1,83,70,63,70,66,61,96,88,59,29.94,29.79,7,1,0,0.00
2013-7-2,84,72,63,72,67,62,96,85,55,30.06,29.92,5,0,0,0.00
2013-7-3,80,73,68,73,69,67,96,89,72,30.15,30.05,3,0,0,0.00
2013-7-4,74,70,67,72,68,65,95,94,88,30.18,30.10,5,0,0,0.00
2013-7-5,67,67,67,66,66,66,96,96,95,30.15,30.11,2,1,0,0.00
2013-7-7,82,74,67,73,68,66,96,83,61,30.15,30.07,5,1,0,0.00
2013-7-8,87,74,65,74,66,-100,96,82,52,30.18,30.09,5,1,0,0.00
2013-7-9,89,78,68,78,72,67,96,81,56,30.14,30.04,7,2,0,0.00
2013-7-10,90,76,72,77,70,-100,95,84,62,30.05,29.88,13,2,0,0.00
2013-7-11,86,74,69,71,69,66,96,85,56,29.99,29.93,5,1,0,0.00
2013-7-12,80,70,61,67,62,59,95,78,52,30.07,29.98,5,2,0,0.00
2013-7-13,79,69,58,70,64,56,96,86,69,30.13,30.03,8,1,0,0.00
2013-7-14,88,76,65,77,70,64,96,84,61,30.23,30.11,5,1,0,0.00
2013-7-15,90,78,68,75,70,67,96,79,54,30.32,30.23,3,1,0,0.00
2013-7-16,91,80,68,77,71,67,96,78,50,30.34,30.26,3,0,0,0.00
2013-7-17,90,79,70,79,74,68,96,85,62,30.32,30.20,3,0,0,0.00
2013-7-18,92,81,72,79,74,70,96,80,57,30.23,30.05,5,1,0,0.00
2013-7-19,88,78,69,77,73,68,96,83,60,30.09,29.96,7,2,0,0.00
2013-7-20,89,80,71,76,70,-100,96,77,55,29.99,29.89,9,3,0,0.00
2013-7-21,84,76,70,76,72,68,95,88,71,29.98,29.89,5,1,0,0.00
2013-7-22,78,73,70,73,71,68,96,93,84,29.96,29.81,9,1,0,0.00
2013-7-23,86,78,72,75,72,70,95,84,63,29.89,29.78,7,3,0,0.00
2013-7-24,79,73,66,74,66,63,94,81,60,29.95,29.80,8,2,0,0.00
2013-7-25,79,70,60,65,62,58,95,78,55,30.10,29.95,6,1,0,0.00
2013-7-26,82,69,56,69,62,55,96,78,53,30.11,30.01,5,1,0,0.00
2013-7-27,79,71,65,70,66,63,95,86,63,30.01,29.88,5,1,0,0.00
2013-7-28,75,66,58,67,58,51,95,76,45,30.12,29.93,7,2,0,0.00
2013-7-29,79,64,52,65,57,51,96,79,48,30.22,30.11,6,1,0,0.00
2013-7-30,78,68,58,68,62,56,96,84,62,30.26,30.16,3,0,0,0.00
2013-7-31,74,70,65,69,66,63,95,90,80,30.17,29.98,5,1,0,0.00
2013-8-1,82,72,64,70,67,62,96,84,62,30.02,29.96,7,2,0,0.00
2013-8-2,82,70,58,69,62,57,96,79,49,30.08,30.01,5,1,0,0.00
2013-8-3,83,75,67,73,69,65,95,82,66,30.03,29.96,8,2,0,0.00
2013-8-4,79,72,61,69,63,57,96,78,49,30.13,30.03,6,2,0,0.00
2013-8-5,81,67,53,66,59,51,96,77,47,30.14,30.00,3,1,0,0.00
2013-8-6,83,73,65,73,67,62,94,82,61,30.02,29.95,4,1,0,0.00
2013-8-7,84,76,70,76,72,68,96,87,74,29.99,29.90,6,1,0,0.00
2013-8-8,84,76,70,77,72,68,96,88,73,30.01,29.92,6,2,0,0.00
2013-8-9,86,76,72,76,72,70,95,88,69,30.05,29.96,7,2,0,0.00
2013-8-10,83,75,71,75,72,70,96,91,73,30.12,30.04,7,0,0,0.00
2013-8-11,85,76,71,78,73,70,97,90,69,30.12,30.04,6,1,0,0.00
2013-8-12,82,73,67,76,71,66,97,92,81,30.09,29.93,5,0,0,0.00
2013-8-13,80,71,65,73,66,-100,96,89,77,30.01,29.89,5,2,0,0.00
2013-8-14,73,63,56,63,54,-100,94,75,52,30.16,30.02,5,2,0,0.00
2013-8-15,77,57,48,64,41,-100,96,75,54,30.18,30.08,4,1,0,0.00
2013-8-16,80,67,57,68,59,-100,96,81,62,30.15,30.08,4,1,0,0.00
2013-8-17,80,69,62,68,63,60,96,81,54,30.18,30.12,4,1,0,0.00
2013-8-18,76,68,64,70,64,-100,95,88,76,30.20,30.12,3,0,0,0.00
2013-8-19,85,70,64,72,57,-100,96,83,55,30.16,30.07,2,0,0,0.00
2013-8-20,84,73,64,74,67,-100,96,85,63,30.18,30.09,3,1,0,0.00
2013-8-21,86,73,68,74,69,66,97,88,64,30.20,30.10,8,1,0,0.00
2013-8-22,85,75,66,74,70,65,97,84,63,30.16,30.05,5,1,0,0.00
2013-8-23,85,75,68,72,69,65,96,83,58,30.12,30.03,4,0,0,0.00
2013-8-24,85,71,61,70,63,59,97,80,42,30.26,30.12,4,1,0,0.00
2013-8-25,87,70,59,71,62,-100,96,79,45,30.36,30.25,5,1,0,0.00
2013-8-26,86,73,62,71,67,61,96,82,58,30.30,30.13,5,1,0,0.00
2013-8-27,87,74,67,75,69,65,96,86,60,30.14,30.04,5,2,0,0.00
2013-8-28,88,85,79,74,72,71,78,67,58,30.02,29.93,8,6,0,0.00
2013-8-29,86,78,70,74,71,67,95,82,61,30.03,29.95,4,1,0,0.00
2013-8-30,90,75,65,75,69,64,97,83,53,30.01,29.89,5,1,0,0.00
2013-8-31,89,74,69,77,70,67,97,89,65,29.97,29.83,5,1,0,0.00
2013-9-1,84,73,67,73,67,-100,96,84,66,29.93,29.81,6,2,0,0.00
2013-9-2,85,74,69,75,70,67,96,89,69,29.93,29.82,6,2,0,0.00
2013-9-3,80,70,60,68,64,58,96,81,54,30.07,29.88,7,1,0,0.00
2013-9-4,80,65,53,65,58,52,96,81,51,30.17,30.07,4,1,0,0.00
2013-9-5,82,68,54,67,61,53,96,81,52,30.23,30.15,3,0,0,0.00
2013-9-6,83,69,58,67,61,57,96,79,45,30.23,30.12,4,1,0,0.00
2013-9-7,85,69,55,71,62,54,96,82,53,30.14,30.00,5,1,0,0.00
2013-9-8,87,74,65,73,65,-100,96,79,51,30.03,29.96,4,1,0,0.00
2013-9-9,89,76,65,73,69,64,96,80,51,30.08,30.01,5,1,0,0.00
2013-9-10,90,78,68,73,71,67,96,80,56,30.19,30.08,6,1,0,0.00
2013-9-11,86,75,69,76,70,67,96,86,64,30.20,30.09,6,1,0,0.00
2013-9-12,85,73,64,75,68,63,97,87,71,30.09,29.90,7,2,0,0.00
2013-9-13,70,64,49,66,55,46,94,73,47,30.09,29.91,7,3,0,0.00
2013-9-14,71,56,43,53,48,41,96,77,45,30.18,30.08,5,1,0,0.00
2013-9-15,79,58,46,63,51,-100,96,82,51,30.19,30.10,6,1,0,0.00
2013-9-16,73,65,58,64,61,56,96,87,65,30.27,30.11,3,0,0,0.00
2013-9-17,78,63,50,63,56,48,96,81,51,30.30,30.17,4,1,0,0.00
2013-9-18,66,61,59,62,60,57,95,94,92,30.19,30.14,0,0,0,0.00
2013-9-19,80,71,63,71,67,61,96,86,72,30.16,30.03,7,1,0,0.00
2013-9-20,85,73,63,69,66,62,97,81,53,30.05,29.84,7,2,0,0.00
2013-9-21,75,66,53,67,62,51,94,85,66,29.88,29.69,8,2,0,0.00
2013-9-22,69,56,47,56,49,-100,96,81,57,30.03,29.88,4,1,0,0.00
2013-9-23,73,57,43,57,50,42,96,81,53,30.11,30.02,4,1,0,0.00
2013-9-24,79,61,48,64,55,47,96,83,52,30.09,29.93,2,0,0,0.00
2013-9-25,77,66,59,66,62,57,96,86,64,29.93,29.86,4,1,0,0.00
2013-9-26,76,64,57,64,59,56,96,87,60,30.08,29.92,3,1,0,0.00
2013-9-27,79,62,51,64,54,50,97,79,37,30.20,30.08,3,0,0,0.00
2013-9-28,80,63,49,63,56,47,96,80,47,30.23,30.11,6,1,0,0.00
2013-9-29,73,63,55,63,56,-100,96,83,59,30.13,30.03,8,1,0,0.00
2013-9-30,76,66,58,63,59,55,96,79,49,30.08,30.00,7,1,0,0.00
2013-10-1,67,63,61,62,60,59,93,90,85,30.11,30.06,0,0,0,0.00
2013-10-2,84,70,58,69,64,57,96,82,57,30.17,30.06,4,1,0,0.00
2013-10-3,78,71,65,70,66,63,96,87,69,30.12,30.06,5,1,0,0.00
2013-10-4,85,72,60,68,65,59,97,80,53,30.16,30.08,5,1,0,0.00
2013-10-5,87,73,63,69,66,61,96,79,52,30.11,29.98,5,1,0,0.00
2013-10-6,83,70,54,67,63,52,94,80,54,29.98,29.77,9,4,0,0.00
2013-10-7,65,55,46,54,48,44,95,80,48,30.18,29.89,9,2,0,0.00
2013-10-8,69,53,38,51,45,36,96,76,45,30.29,30.18,9,2,0,0.00
2013-10-9,75,57,41,56,48,39,97,76,46,30.26,30.17,5,1,0,0.00
2013-10-10,74,56,42,54,48,40,96,76,38,30.22,30.11,3,0,0,0.00
2013-10-11,78,58,44,57,50,42,96,78,45,30.14,30.04,5,1,0,0.00
2013-10-12,79,62,48,61,54,46,96,79,49,30.16,30.05,4,1,0,0.00
2013-10-13,79,63,52,62,55,-100,96,79,47,30.28,30.16,6,1,0,0.00
2013-10-14,76,64,58,62,59,57,95,84,58,30.31,30.16,4,1,0,0.00
2013-10-15,74,67,59,64,61,57,95,83,65,30.19,29.99,7,1,0,0.00
2013-10-16,66,64,61,63,61,59,95,91,84,30.01,29.96,4,0,0,0.00
2013-10-17,61,55,45,60,52,43,95,92,79,30.05,29.90,8,2,0,0.00
2013-10-18,64,51,41,53,45,40,96,82,49,30.14,30.01,4,1,0,0.00
2013-10-19,57,47,39,51,44,37,96,90,77,30.10,29.91,10,2,0,0.00
2013-10-20,62,46,34,46,36,-100,96,76,39,30.17,30.09,5,1,0,0.00
2013-10-21,69,50,35,46,39,33,96,73,32,30.14,29.99,8,2,0,0.00
2013-10-22,57,48,42,49,39,33,92,73,41,30.11,29.89,9,1,0,0.00
2013-10-23,48,44,34,46,39,31,94,83,67,30.13,29.79,14,5,0,0.00
2013-10-24,47,41,33,39,34,31,92,77,58,30.35,30.12,10,3,0,0.00
2013-10-25,48,39,29,32,29,26,92,68,43,30.54,30.35,5,2,0,0.00
2013-10-26,55,39,24,35,28,22,94,69,37,30.41,30.08,10,2,0,0.00
2013-10-27,63,44,34,46,36,-100,93,80,53,30.16,30.08,6,0,0,0.00
2013-10-28,60,52,45,56,49,-100,95,92,88,30.30,30.14,2,0,0,0.00
2013-10-29,64,57,52,58,54,50,96,90,76,30.37,30.23,3,0,0,0.00
2013-10-30,71,62,57,65,60,55,96,92,80,30.24,30.10,6,1,0,0.00
2013-10-31,73,67,62,63,58,56,94,75,65,30.10,29.54,12,5,0,0.00
2013-11-1,70,61,55,63,50,45,88,69,47,29.80,29.54,16,6,0,0.00
2013-11-2,57,50,43,47,42,39,93,77,53,30.14,29.81,10,2,0,0.00
2013-11-3,55,43,35,42,36,-100,94,80,54,30.42,30.14,4,0,0,0.00
2013-11-4,63,47,33,44,38,31,95,72,39,30.47,30.37,4,1,0,0.00
2013-11-5,68,53,45,42,38,29,82,60,24,30.48,30.32,4,0,0,0.00
2013-11-6,75,62,45,60,50,36,94,66,47,30.30,30.03,12,4,0,0.00
2013-11-7,61,46,33,59,39,29,94,76,47,30.32,30.03,9,5,0,0.00
2013-11-8,53,40,29,32,29,25,93,69,35,30.46,30.32,4,1,0,0.00
2013-11-9,62,46,29,34,26,-100,89,55,21,30.34,30.18,11,3,0,0.00
2013-11-10,55,47,31,41,32,25,83,57,31,30.40,30.23,11,4,0,0.00
2013-11-11,63,44,27,37,28,21,92,60,21,30.38,30.18,7,1,0,0.00
2013-11-12,55,34,23,43,26,18,92,75,42,30.68,30.18,9,4,0,0.00
2013-11-13,40,27,18,26,20,15,90,76,43,30.76,30.57,5,1,0,0.00
2013-11-14,56,39,21,25,21,18,91,54,22,30.51,30.30,7,2,0,0.00
2013-11-15,57,48,35,46,34,20,93,62,38,30.29,30.17,6,1,0,0.00
2013-11-16,65,54,44,56,48,-100,96,85,72,30.22,30.03,8,2,0,0.00
2013-11-17,68,64,61,63,58,49,95,80,63,30.03,29.70,10,5,0,0.00
2013-11-18,60,49,41,47,38,30,91,67,40,30.24,29.87,11,3,0,0.00
2013-11-19,45,37,27,32,28,24,91,72,56,30.37,30.24,6,2,0,0.00
2013-11-20,57,40,27,33,29,24,90,67,36,30.36,30.19,5,1,0,0.00
2013-11-21,64,51,36,52,41,30,81,68,53,30.32,30.17,4,1,0,0.00
2013-11-22,61,55,43,59,52,38,96,91,75,30.29,30.11,7,3,0,0.00
2013-11-23,43,37,27,38,26,-100,84,68,36,30.49,30.27,10,5,0,0.00
2013-11-24,30,24,17,17,11,6,82,59,40,30.68,30.50,6,2,0,0.00
2013-11-25,46,33,19,32,19,14,92,59,28,30.53,30.21,7,1,0,0.00
2013-11-26,37,35,33,36,33,31,95,94,92,30.21,29.85,4,2,0,0.00
2013-11-27,33,30,20,31,25,16,93,81,65,30.32,29.88,11,5,0,0.00
2013-12-14,49,40,36,47,35,-100,95,85,61,30.13,29.69,11,3,0,0.00
2013-12-15,38,33,31,36,29,26,92,84,80,30.15,29.85,12,7,0,0.00
2013-12-16,47,37,32,35,31,27,92,80,63,30.14,30.01,7,2,0,0.00
2013-12-17,46,42,32,39,35,27,82,74,67,30.21,29.95,11,5,0,0.00
2013-12-18,44,33,26,26,22,14,90,66,30,30.31,30.14,9,2,0,0.00
2013-12-19,62,51,33,28,25,19,64,38,25,30.18,30.02,8,2,0,0.00
2013-12-20,65,60,54,55,44,26,86,60,31,30.02,29.87,10,6,0,0.00
2013-12-21,72,65,61,63,57,-100,89,77,70,29.88,29.57,11,7,0,0.00
2013-12-22,75,58,53,63,53,48,93,82,66,29.96,29.59,11,3,0,0.00
2013-12-23,52,37,29,50,32,25,92,81,65,30.36,29.97,10,5,0,0.00
2013-12-24,30,25,16,25,17,12,87,73,54,30.53,30.36,9,4,0,0.00
2013-12-25,15,14,14,12,11,11,88,88,87,30.50,30.46,0,0,0,0.00